星链-36842(STARLINK-36842)

导读

STARLINK-36842是美国SpaceX公司星链(Starlink)星座的卫星,于2026年2月21日由猎鹰9号火箭从加利福尼亚州范登堡基地发射升空,属于Starlink 17-25组网任务,被部署至近地轨道。星链星座旨在提供全球宽带互联网服务,该卫星采用平板设计与霍尔推进技术,具备自主避撞能力,退役后将受控坠入大气层烧毁,服务寿命约5-7年。此次发射后SpaceX星链总发射量突破万颗规模。

基本信息
目录编号:
67884
目录名称:
STARLINK-36842
国际标识:
2026-035F
轨道中心:
EARTH
卫星名称:
星链-36842
卫星全名:
星链-36842(STARLINK-36842)
卫星状态:
在轨 (已飞行196 天)
发射日期:
2026-02-21 UTC
国别 :
美国 (US)
星等 :
--
轨道信息
数据来源 国际轨道数据
星历时间: 2026-09-05T14:18:20+0800
6小时前
查看轨道信息
半长轴: 6843.676km
偏心率: 0.000092
轨道倾角: 97.282°
近地点辐角 116.596°
升交点赤经 180.261°
平近点角 243.538°
近地点: 464.909km
远地点: 466.169km
周期: 93.906分钟
每日圈数: 15.334467
详细信息
固有亮度:
5
最大亮度:
2.5
卫星平台:
Starlink V1.0
覆盖范围:
全球
运营商:
太空探索技术公司
运营商所在国:
美国
制造商(研发单位):
太空探索技术公司
制造商所在国:
美国
使用方式:
暂无
卫星简介
Starlink 计划是 SpaceX 推出的全球卫星互联网项目,通过发射低轨道卫星,为全球尤其是偏远地区提供高速、低延迟的互联网服务。自 2019 年起,Starlink 已部署数千颗卫星,旨在缩小全球数字鸿沟,推动互联网普及。该项目还为军事、航空等行业提供通信支持,带来广泛经济效益。
2D轨道图
3D轨道图
轨道高度分析图
轨道倾角分析图
轨道综合分析图
查看轨道综合分析图
交会数据列表
事件ID 空间交会对象 最接近时刻(TCA) 交会距离 交会风险概率(CRP) 交会风险指数(CRI) 操作
CDM_260905-113006-074606-788421
OBJECT B (60746)
2026-09-05T
11:30:18+0000
2.030 km
极远距离
2.729274E-6 低风险 0.44
CDM_260903-154605-248806-788421
2026-09-03T
15:46:52+0000
2.629 km
极远距离
1.588654E-6 低风险 0.39
CDM_260903-133804-606106-788421
2026-09-03T
13:38:15+0000
2.921 km
极远距离
1.380646E-6 低风险 0.38